User: anonymous
Location: Mt. Cuba Astronomical Observatory
(39.8100°N, 75.6300°W)
Time: 03:33:22
(UTC-04:00)
Language:

Cosmos 2058 - Orbit

View from above orbital plane
View from above orbital plane
View from above satellite
View from above satellite

Ground track
Ground track

The orbit data is extracted from the following two-line orbital elements,

1 20465U 90010A   14259.76599280  .00002110  00000-0  18984-3 0  2196
2 20465 082.4917 132.3990 0018009 075.6278 284.6941 14.95057825335090
Epoch (UTC): 16 September 2014 18:23:01
Eccentricity: 0.0018009
inclination: 82.4917°
perigee height: 569 km
apogee height: 595 km
right ascension of ascending node: 132.3990°
argument of perigee: 75.6278°
revolutions per day: 14.95057825
mean anomaly at epoch: 284.6941°
orbit number at epoch: 33509

The dashed part of the orbit path shows where the satellite is in the earth's shadow,  

DLR